Satellite: NANOSALD
Catalog number: 37361
Epoch time:      11101.76674640
Element set:    0135
Inclination:      071.9637 deg
RA of node:       184.5152 deg
Eccentricity:    0.0027264
Arg of perigee:   330.2857 deg
Mean anomaly:     029.2084 deg
Mean motion:   14.88289200 rev/day
Decay rate:    1.50293e-03 rev/day^2
Epoch rev:           01220
Checksum:              279

Satellite: FAST2
Catalog number: 37380
Epoch time:      11103.49406150
Element set:    0023
Inclination:      071.9714 deg
RA of node:       181.9072 deg
Eccentricity:    0.0015650
Arg of perigee:   037.8255 deg
Mean anomaly:     322.3976 deg
Mean motion:   14.76551936 rev/day
Decay rate:       4.07e-06 rev/day^2
Epoch rev:           00321
Checksum:              272

/EX
SB KEPS @ AMSAT  $ORB11104.W
Orbital Elements  11104.WEATHER

HR AMSAT ORBITAL ELEMENTS FOR WEATHER SATELLITES
FROM WA5QGD FORT WORTH,TX April 14, 2011
Send Subscribe/unsubscribe to KEPS at http://www.amsat.org/mailman/listinfo/kep
BID: ORB11104.W
TO ALL RADIO AMATEURS BT

Satellite: NOAA-10
Catalog number: 16969
Epoch time:      11104.49408181
Element set:     466
Inclination:      098.6241 deg
RA of node:       135.1311 deg
Eccentricity:    0.0013053
Arg of perigee:   053.7984 deg
Mean anomaly:     306.4418 deg
Mean motion:   14.27453443 rev/day
Decay rate:       -4.4e-07 rev/day^2
Epoch rev:           27856
Checksum:              294

Satellite: NOAA-11
Catalog number: 19531
Epoch time:      11104.27391546
Element set:     469
Inclination:      098.7505 deg
RA of node:       192.9461 deg
Eccentricity:    0.0011556
Arg of perigee:   014.7981 deg
Mean anomaly:     345.3506 deg
Mean motion:   14.14910977 rev/day
Decay rate:       -4.7e-07 rev/day^2
Epoch rev:           16371
Checksum:              308

Satellite: NOAA-12
Catalog number: 21263
Epoch time:      11104.57355337
Element set:     963
Inclination:      098.7547 deg
RA of node:       122.5231 deg
Eccentricity:    0.0012905
Arg of perigee:   015.9954 deg
Mean anomaly:     344.1624 deg
Mean motion:   14.25701194 rev/day
Decay rate:       1.79e-06 rev/day^2
Epoch rev:            3534
Checksum:              286

Satellite: MET-3/5
Catalog number: 21655
Epoch time:      11103.78851249
Element set:    0087
Inclination:      082.5531 deg
RA of node:       096.2744 deg
Eccentricity:    0.0012798
Arg of perigee:   323.0826 deg
Mean anomaly:     036.9446 deg
Mean motion:   13.17028519 rev/day
Decay rate:        5.1e-07 rev/day^2
Epoch rev:           94524
Checksum:              309

Satellite: MET-2/21
Catalog number: 22782
Epoch time:      11103.82557909
Element set:    0069
Inclination:      082.5511 deg
RA of node:       013.9421 deg
Eccentricity:    0.0020954
Arg of perigee:   281.0939 deg
Mean anomaly:     078.7850 deg
Mean motion:   13.83658324 rev/day
Decay rate:        5.1e-07 rev/day^2
Epoch rev:           88965
Checksum:              317

Satellite: OKEAN-4
Catalog number: 23317
Epoch time:      11104.81005803
Element set:     526
Inclination:      082.5377 deg
RA of node:       072.3114 deg
Eccentricity:    0.0021442
Arg of perigee:   332.7451 deg
Mean anomaly:     027.2644 deg
Mean motion:   14.83015825 rev/day
Decay rate:      1.118e-05 rev/day^2
Epoch rev:           89115
Checksum:              259

Satellite: NOAA-14
Catalog number: 23455
Epoch time:      11104.41354237
Element set:     449
Inclination:      098.8521 deg
RA of node:       187.6791 deg
Eccentricity:    0.0010200
Arg of perigee:   099.0304 deg
Mean anomaly:     261.2023 deg
Mean motion:   14.13814204 rev/day
Decay rate:       1.17e-06 rev/day^2
Epoch rev:           84006
Checksum:              258

Satellite: NOAA-15
Catalog number: 25338
Epoch time:      11104.19507561
Element set:     778
Inclination:      098.6510 deg
RA of node:       091.2290 deg
Eccentricity:    0.0009698
Arg of perigee:   280.6403 deg
Mean anomaly:     079.3678 deg
Mean motion:   14.24901095 rev/day
Decay rate:       2.30e-06 rev/day^2
Epoch rev:           67161
Checksum:              308

Satellite: RESURS
Catalog number: 25394
Epoch time:      11103.96599481
Element set:    0791
Inclination:      098.3019 deg
RA of node:       110.5286 deg
Eccentricity:    0.0002449
Arg of perigee:   064.3857 deg
Mean anomaly:     295.7577 deg
Mean motion:   14.24229356 rev/day
Decay rate:        5.7e-07 rev/day^2
Epoch rev:           66316
Checksum:              326

Satellite: FENGYUN1
Catalog number: 25730
Epoch time:      11103.95888233
Element set:    0317
Inclination:      098.8146 deg
RA of node:       066.5766 deg
Eccentricity:    0.0023628
Arg of perigee:   127.6198 deg
Mean anomaly:     232.7120 deg
Mean motion:   14.08584624 rev/day
Decay rate:       9.32e-06 rev/day^2
Epoch rev:           61402
Checksum:              303

Satellite: OKEAN-0
Catalog number: 25860
Epoch time:      11104.00190283
Element set:    0303
Inclination:      097.8771 deg
RA of node:       072.2381 deg
Eccentricity:    0.0001030
Arg of perigee:   105.0431 deg
Mean anomaly:     255.0891 deg
Mean motion:   14.73754123 rev/day
Decay rate:       5.48e-06 rev/day^2
Epoch rev:           63120
Checksum:              243

